When you browse on this site, cookies collect data to enhance your experience and personalize the content and advertising you see.
Visit our Privacy Policy to learn more. By continuing to use the site, you agree to this use of cookies and data.
  • en France
  • Liste des pays
  • À 7 jours
  • Température de l'eau
  • Carte satellitaire
  • Carte météo
  • Widgets météo
  • user-avatar
    Se connecter

    Météo par heure à Chernaya Rechka

    Ce jour, 20 Juin, Jeudi

    Heure Température Précipitation Vent Pression Humidité
    00:00 +17°C° 0 mm 2 m/s 750 mmHg 86%
    01:00 +17°C° 0 mm 2 m/s 750 mmHg 85%
    02:00 +17°C° 0 mm 2 m/s 750 mmHg 85%
    03:00 +16°C° 0 mm 2 m/s 750 mmHg 81%
    04:00 +18°C° 0 mm 1 m/s 750 mmHg 81%
    05:00 +19°C° 0 mm 1 m/s 751 mmHg 80%
    06:00 +19°C° 0 mm 1 m/s 751 mmHg 80%
    07:00 +21°C° 0 mm 1 m/s 751 mmHg 75%
    08:00 +23°C° 0 mm 1 m/s 751 mmHg 70%
    09:00 +25°C° 0 mm 1 m/s 751 mmHg 64%
    10:00 +26°C° 0 mm 1 m/s 751 mmHg 60%
    11:00 +26°C° 0 mm 1 m/s 751 mmHg 55%
    12:00 +27°C° 0 mm 2 m/s 751 mmHg 51%
    13:00 +28°C° 0 mm 1 m/s 751 mmHg 50%
    14:00 +28°C° 0 mm 1 m/s 751 mmHg 49%
    15:00 +29°C° 0 mm 2 m/s 751 mmHg 47%
    16:00 +28°C° 0 mm 2 m/s 751 mmHg 51%
    17:00 +28°C° 0 mm 1 m/s 751 mmHg 55%
    18:00 +28°C° 0 mm 1 m/s 751 mmHg 60%
    19:00 +26°C° 0 mm 1 m/s 751 mmHg 62%
    20:00 +24°C° 0 mm 1 m/s 751 mmHg 65%
    21:00 +20°C° 0 mm 0 m/s 751 mmHg 67%
    22:00 +19°C° 0 mm 0 m/s 751 mmHg 69%
    23:00 +18°C° 0 mm 0 m/s 751 mmHg 71%

    Demain, 21 Juin, Vendredi

    Heure Température Précipitation Vent Pression Humidité
    00:00 +18°C° 0 mm 0 m/s 751 mmHg 73%
    01:00 +17°C° 0 mm 0 m/s 751 mmHg 75%
    02:00 +17°C° 0 mm 0 m/s 752 mmHg 76%
    03:00 +17°C° 0 mm 0 m/s 752 mmHg 77%
    04:00 +18°C° 0 mm 0 m/s 752 mmHg 76%
    05:00 +19°C° 0 mm 0 m/s 752 mmHg 76%
    06:00 +20°C° 0 mm 0 m/s 753 mmHg 75%
    07:00 +23°C° 0 mm 1 m/s 753 mmHg 70%
    08:00 +25°C° 0 mm 1 m/s 753 mmHg 66%
    09:00 +26°C° 0 mm 1 m/s 753 mmHg 61%
    10:00 +27°C° 0 mm 1 m/s 753 mmHg 58%
    11:00 +28°C° 0 mm 2 m/s 753 mmHg 55%
    12:00 +29°C° 0 mm 2 m/s 752 mmHg 52%
    13:00 +29°C° 0 mm 2 m/s 752 mmHg 51%
    14:00 +29°C° 0 mm 2 m/s 752 mmHg 51%
    15:00 +29°C° 0 mm 3 m/s 752 mmHg 51%
    16:00 +29°C° 0 mm 2 m/s 752 mmHg 55%
    17:00 +29°C° 0 mm 2 m/s 752 mmHg 59%
    18:00 +28°C° 0 mm 1 m/s 752 mmHg 63%
    19:00 +26°C° 0 mm 1 m/s 752 mmHg 65%
    20:00 +24°C° 0 mm 1 m/s 752 mmHg 68%
    21:00 +23°C° 0 mm 1 m/s 752 mmHg 70%
    22:00 +22°C° 0 mm 1 m/s 752 mmHg 71%
    23:00 +22°C° 0 mm 1 m/s 752 mmHg 72%

    Après-demain, 22 Juin, Samedi

    Heure Température Précipitation Vent Pression Humidité
    00:00 +20°C° 0 mm 2 m/s 752 mmHg 73%
    01:00 +20°C° 0 mm 2 m/s 752 mmHg 73%
    02:00 +20°C° 0 mm 2 m/s 752 mmHg 74%
    03:00 +19°C° 0 mm 2 m/s 752 mmHg 75%
    04:00 +20°C° 0 mm 2 m/s 752 mmHg 76%
    05:00 +20°C° 0 mm 2 m/s 752 mmHg 78%
    06:00 +20°C° 0 mm 2 m/s 752 mmHg 79%
    07:00 +22°C° 0 mm 3 m/s 752 mmHg 76%
    08:00 +25°C° 0 mm 3 m/s 752 mmHg 72%
    09:00 +27°C° 0 mm 3 m/s 752 mmHg 68%
    10:00 +27°C° 0 mm 4 m/s 752 mmHg 64%
    11:00 +28°C° 0 mm 4 m/s 752 mmHg 60%
    12:00 +29°C° 0 mm 5 m/s 752 mmHg 56%
    13:00 +29°C° 0 mm 5 m/s 752 mmHg 56%
    14:00 +29°C° 0 mm 5 m/s 752 mmHg 56%
    15:00 +30°C° 0 mm 5 m/s 752 mmHg 56%
    16:00 +29°C° 0 mm 4 m/s 751 mmHg 61%
    17:00 +29°C° 0 mm 4 m/s 751 mmHg 65%
    18:00 +28°C° 0 mm 3 m/s 751 mmHg 70%
    19:00 +27°C° 0 mm 3 m/s 751 mmHg 73%
    20:00 +25°C° 0 mm 3 m/s 751 mmHg 77%
    21:00 +24°C° 0 mm 3 m/s 752 mmHg 80%
    22:00 +22°C° 0 mm 3 m/s 752 mmHg 81%
    23:00 +21°C° 0 mm 3 m/s 752 mmHg 82%

    23 Juin, Dimanche

    Heure Température Précipitation Vent Pression Humidité
    00:00 +21°C° 0 mm 3 m/s 752 mmHg 83%
    01:00 +20°C° 0 mm 3 m/s 752 mmHg 84%
    02:00 +20°C° 0 mm 3 m/s 752 mmHg 85%
    03:00 +19°C° 0 mm 3 m/s 752 mmHg 87%
    04:00 +20°C° 0 mm 3 m/s 752 mmHg 86%
    05:00 +21°C° 0 mm 3 m/s 752 mmHg 85%
    06:00 +21°C° 0 mm 2 m/s 752 mmHg 85%
    07:00 +24°C° 0.1 mm 3 m/s 752 mmHg 81%
    08:00 +25°C° 0.1 mm 3 m/s 752 mmHg 77%
    09:00 +27°C° 0.1 mm 3 m/s 752 mmHg 73%
    10:00 +28°C° 0 mm 3 m/s 752 mmHg 68%
    11:00 +28°C° 0 mm 3 m/s 752 mmHg 64%
    12:00 +29°C° 0 mm 3 m/s 752 mmHg 59%
    13:00 +29°C° 0.2 mm 3 m/s 752 mmHg 60%
    14:00 +29°C° 0.2 mm 3 m/s 752 mmHg 60%
    15:00 +29°C° 0.2 mm 4 m/s 752 mmHg 61%
    16:00 +29°C° 0.5 mm 3 m/s 752 mmHg 65%
    17:00 +28°C° 0.5 mm 2 m/s 752 mmHg 70%
    18:00 +28°C° 0.5 mm 2 m/s 751 mmHg 74%
    19:00 +26°C° 0.2 mm 2 m/s 752 mmHg 78%
    20:00 +25°C° 0.2 mm 1 m/s 752 mmHg 81%
    21:00 +23°C° 0.2 mm 1 m/s 752 mmHg 85%
    22:00 +22°C° 0 mm 1 m/s 752 mmHg 87%
    23:00 +21°C° 0 mm 2 m/s 752 mmHg 89%

    24 Juin, Lundi

    Heure Température Précipitation Vent Pression Humidité
    00:00 +20°C° 0 mm 2 m/s 752 mmHg 91%
    01:00 +19°C° 0 mm 3 m/s 752 mmHg 91%
    02:00 +18°C° 0 mm 3 m/s 753 mmHg 90%
    03:00 +17°C° 0 mm 3 m/s 753 mmHg 90%
    04:00 +17°C° 0 mm 3 m/s 753 mmHg 85%
    05:00 +17°C° 0 mm 3 m/s 753 mmHg 79%
    06:00 +17°C° 0 mm 4 m/s 754 mmHg 73%
    07:00 +18°C° 0 mm 4 m/s 754 mmHg 70%
    08:00 +19°C° 0 mm 4 m/s 754 mmHg 66%
    09:00 +20°C° 0 mm 4 m/s 755 mmHg 62%
    10:00 +21°C° 0 mm 4 m/s 755 mmHg 58%
    11:00 +22°C° 0 mm 4 m/s 755 mmHg 54%
    12:00 +23°C° 0 mm 4 m/s 755 mmHg 50%
    13:00 +25°C° 0 mm 4 m/s 755 mmHg 50%
    14:00 +25°C° 0 mm 4 m/s 755 mmHg 49%
    15:00 +25°C° 0 mm 4 m/s 755 mmHg 48%
    16:00 +25°C° 0 mm 4 m/s 755 mmHg 53%
    17:00 +24°C° 0 mm 3 m/s 755 mmHg 57%
    18:00 +24°C° 0 mm 3 m/s 755 mmHg 61%
    19:00 +21°C° 0 mm 3 m/s 756 mmHg 64%
    20:00 +19°C° 0 mm 3 m/s 756 mmHg 67%
    21:00 +17°C° 0 mm 3 m/s 756 mmHg 70%
    22:00 +16°C° 0 mm 3 m/s 756 mmHg 71%
    23:00 +15°C° 0 mm 2 m/s 756 mmHg 72%

    25 Juin, Mardi

    Heure Température Précipitation Vent Pression Humidité
    00:00 +14°C° 0 mm 2 m/s 756 mmHg 73%
    01:00 +14°C° 0 mm 2 m/s 757 mmHg 75%
    02:00 +13°C° 0 mm 2 m/s 757 mmHg 78%
    03:00 +12°C° 0 mm 2 m/s 757 mmHg 80%
    04:00 +13°C° 0 mm 2 m/s 757 mmHg 80%
    05:00 +14°C° 0 mm 2 m/s 757 mmHg 79%
    06:00 +14°C° 0 mm 2 m/s 757 mmHg 79%
    07:00 +16°C° 0 mm 3 m/s 757 mmHg 74%
    08:00 +17°C° 0 mm 3 m/s 757 mmHg 69%
    09:00 +19°C° 0 mm 4 m/s 757 mmHg 64%
    10:00 +19°C° 0 mm 4 m/s 757 mmHg 61%
    11:00 +20°C° 0 mm 4 m/s 757 mmHg 59%
    12:00 +21°C° 0 mm 4 m/s 757 mmHg 56%
    13:00 +21°C° 0 mm 4 m/s 757 mmHg 55%
    14:00 +21°C° 0 mm 4 m/s 757 mmHg 54%
    15:00 +21°C° 0 mm 4 m/s 757 mmHg 53%
    16:00 +21°C° 0 mm 4 m/s 756 mmHg 56%
    17:00 +21°C° 0 mm 3 m/s 756 mmHg 59%
    18:00 +20°C° 0 mm 3 m/s 756 mmHg 61%
    19:00 +19°C° 0 mm 3 m/s 756 mmHg 66%
    20:00 +17°C° 0 mm 2 m/s 756 mmHg 70%
    21:00 +15°C° 0 mm 2 m/s 756 mmHg 74%
    22:00 +15°C° 0 mm 1 m/s 756 mmHg 74%
    23:00 +14°C° 0 mm 1 m/s 756 mmHg 75%
    Voir plus